This is the latest recevied weather packets stored in our database for station/object KE0FIN. If no packets are shown the sender has not sent any weather packets the latest 10 day(s).
| Time | Temp. | Humidity | Pressure | Rain* | Wind** | Luminosity | Snow |
|---|---|---|---|---|---|---|---|
| 1778024474 | 11.67° C | 61% | 1063.6 hPa | 0 mm | - | 33 W/m² | - |
| 1778024171 | 11.67° C | 61% | 1063.3 hPa | 0 mm | - | 32 W/m² | - |
| 1778023869 | 11.67° C | 60% | 1063.5 hPa | 0 mm | - | 37 W/m² | - |
| 1778023566 | 11.67° C | 61% | 1063.3 hPa | 0 mm | - | 40 W/m² | - |
| 1778023264 | 11.67° C | 60% | 1063.3 hPa | 0 mm | - | 29 W/m² | - |
| 1778022960 | 11.67° C | 58% | 1063.2 hPa | 0 mm | - | 34 W/m² | - |
| 1778022659 | 11.67° C | 56% | 1063.2 hPa | 0 mm | - | 43 W/m² | - |
| 1778022356 | 11.67° C | 57% | 1063.1 hPa | 0 mm | - | 55 W/m² | - |
| 1778022052 | 11.67° C | 58% | 1063 hPa | 0 mm | - | 37 W/m² | - |
| 1778021749 | 12.22° C | 59% | 1062.9 hPa | 0 mm | - | 32 W/m² | - |
| 1778021445 | 12.78° C | 60% | 1062.6 hPa | 0 mm | - | 55 W/m² | - |
| 1778021142 | 12.78° C | 61% | 1062.6 hPa | 0 mm | - | 86 W/m² | - |
| 1778020840 | 12.22° C | 60% | 1062.8 hPa | 0 mm | - | 112 W/m² | - |
| 1778020537 | 12.78° C | 60% | 1062.7 hPa | 0 mm | - | 110 W/m² | - |
| 1778020233 | 12.78° C | 59% | 1062.9 hPa | 0 mm | - | 99 W/m² | - |
| 1778019929 | 12.78° C | 59% | 1063 hPa | 0 mm | - | 110 W/m² | - |
| 1778019625 | 12.78° C | 59% | 1062.9 hPa | 0 mm | - | 101 W/m² | - |
| 1778019323 | 12.78° C | 59% | 1062.9 hPa | 0 mm | - | 114 W/m² | - |
| 1778019019 | 12.78° C | 58% | 1062.8 hPa | 0 mm | - | 137 W/m² | - |
| 1778018716 | 12.78° C | 58% | 1063.2 hPa | 0 mm | - | 125 W/m² | - |
| 1778018414 | 12.78° C | 61% | 1063.2 hPa | 0 mm | - | 121 W/m² | - |
| 1778018112 | 12.22° C | 63% | 1063.3 hPa | 0 mm | - | 115 W/m² | - |
| 1778017809 | 12.22° C | 63% | 1063.2 hPa | 0 mm | - | 101 W/m² | - |
| 1778017508 | 12.22° C | 63% | 1063.4 hPa | 0 mm | - | 93 W/m² | - |
| 1778017204 | 12.22° C | 64% | 1063.2 hPa | 0 mm | - | 89 W/m² | - |
* Rain latest hour (hover to see other rain measurements)
** Current wind speed in m/s (hover to see current wind gust speed)